Dallas Addison, TX

1:29 AM CST on November 21, 2017 (GMT -0600)
Addison

Weather History for KADS - April, 2014

Change the Weather History Date:

Tuesday, April 22, 2014

  Actual Average Record
Temperature  
Mean Temperature 71 °F -  
Max Temperature 84 °F 74 °F 91 °F (2009)
Min Temperature 62 °F 58 °F 33 °F (2008)
Cooling Degree Days 6    
Growing Degree Days 21 (Base 50)    
Moisture  
Dew Point 59 °F    
Average Humidity 74    
Maximum Humidity 100    
Minimum Humidity 34    
Precipitation  
Precipitation 0.00 in - - ()
Sea Level Pressure  
Sea Level Pressure 30.01 in    
Wind  
Wind Speed 4 mph (NE)    
Max Wind Speed 13 mph    
Max Gust Speed 18 mph    
Visibility 10 miles    
Events      
Averages and records for this station are not official NWS values.
T = Trace of Precipitation, MM = Missing Value Source: NWS Daily Summary

Daily Weather History Graph

Daily Weather History Graph

Search for Another Location

Airport or City:

Trip Planner

Search our weather history database for the weather conditions in past years. The results will help you decide how hot, cold, wet, or windy it might be!

Date:

Astronomy

Apr. 22, 2014 Rise Set
Actual Time 6:49 AM CDT 8:02 PM CDT
Civil Twilight 6:23 AM CDT 8:28 PM CDT
Nautical Twilight 5:52 AM CDT 8:59 PM CDT
Astronomical Twilight 5:21 AM CDT 9:31 PM CDT
Moon 2:16 AM CDT (4/22) 1:26 PM CDT (4/22)
Length of Visible Light 14h 05m
Length of Day
13h 13m
Last Quarter, 46% of the Moon is Illuminated
Apr 22
Last Quarter
Apr 29
New
May 6
First Quarter
May 14
Full
May 21
Last Quarter

Hourly Weather History & Observations

Time (CDT) Temp. Heat Index Dew Point Humidity Pressure Visibility Wind Dir Wind Speed Gust Speed Precip Events Conditions
12:15 AM 68.5 °F - 63.1 °F 83% 30.03 in 10.0 mi NE 3.5 mph - N/A   Clear
12:35 AM 67.6 °F - 64.4 °F 89% 30.02 in 10.0 mi NE 4.6 mph - N/A   Clear
12:55 AM 67.5 °F - 66.6 °F 97% 30.02 in 10.0 mi ENE 4.6 mph - N/A   Clear
1:15 AM 67.1 °F - 66.9 °F 99% 30.02 in 10.0 mi NE 3.5 mph - N/A   Clear
1:35 AM 66.7 °F - 66.7 °F 100% 30.02 in 10.0 mi NE 4.6 mph - N/A   Clear
1:55 AM 66.7 °F - 66.7 °F 100% 30.01 in 10.0 mi NE 3.5 mph - N/A   Clear
2:15 AM 66.4 °F - 66.4 °F 100% 30.01 in 10.0 mi Calm Calm - N/A   Clear
2:35 AM 65.1 °F - 65.1 °F 100% 30.02 in 10.0 mi Calm Calm - N/A   Clear
2:55 AM 64.8 °F - 64.8 °F 100% 30.02 in 10.0 mi Calm Calm - N/A   Clear
3:15 AM 63.9 °F - 63.9 °F 100% 30.02 in 10.0 mi Calm Calm - N/A   Clear
3:35 AM 63.9 °F - 63.9 °F 100% 30.02 in 10.0 mi Calm Calm - N/A   Clear
3:55 AM 63.3 °F - 63.3 °F 100% 30.02 in 5.0 mi Calm Calm - N/A   Clear
4:15 AM 63.0 °F - 63.0 °F 100% 30.03 in 5.0 mi Calm Calm - N/A   Scattered Clouds
4:35 AM 62.6 °F - 62.6 °F 100% 30.03 in 5.0 mi Calm Calm - N/A   Clear
4:55 AM 62.8 °F - 62.8 °F 100% 30.03 in 7.0 mi Calm Calm - N/A   Clear
5:15 AM 62.4 °F - 62.4 °F 100% 30.02 in 7.0 mi Calm Calm - N/A   Clear
5:35 AM 63.0 °F - 63.0 °F 100% 30.03 in 10.0 mi Calm Calm - N/A   Clear
5:47 AM 62.6 °F - 60.8 °F 94% 30.02 in 5.0 mi Calm Calm - N/A   Clear
6:47 AM 62.6 °F - 59.0 °F 88% 30.04 in 9.0 mi Calm Calm - N/A   Clear
7:47 AM 62.6 °F - 60.8 °F 94% 30.06 in 10.0 mi North 5.8 mph - N/A   Clear
8:47 AM 66.2 °F - 60.8 °F 83% 30.09 in 13.0 mi NNW 9.2 mph - N/A   Clear
9:47 AM 71.6 °F - 59.0 °F 64% 30.09 in 13.0 mi NNE 11.5 mph 17.3 mph N/A   Clear
10:47 AM 73.4 °F - 59.0 °F 61% 30.08 in 13.0 mi ENE 12.7 mph 18.4 mph N/A   Partly Cloudy
11:47 AM 77.0 °F - 57.2 °F 50% 30.07 in 13.0 mi North 12.7 mph 18.4 mph N/A   Partly Cloudy
12:47 PM 78.8 °F - 55.4 °F 44% 30.05 in 13.0 mi NE 9.2 mph - N/A   Scattered Clouds
1:47 PM 80.6 °F 80.3 °F 53.6 °F 39% 30.04 in 13.0 mi East 4.6 mph - N/A   Scattered Clouds
2:54 PM 80.6 °F - 51.8 °F 37% 30.00 in 13.0 mi ENE 3.5 mph - N/A   Partly Cloudy
3:47 PM 80.6 °F - 51.8 °F 37% 29.99 in 13.0 mi North 10.4 mph - N/A   Partly Cloudy
6:50 PM 80.6 °F - 50.0 °F 34% 29.93 in 13.0 mi NNE 6.9 mph - N/A   Clear
7:47 PM 77.0 °F - 50.0 °F 39% 29.94 in 13.0 mi North 9.2 mph - N/A   Clear
9:47 PM 75.2 °F - 51.8 °F 44% 29.95 in 10.0 mi NNE 4.6 mph - N/A   Clear
10:15 PM 73.6 °F - 49.3 °F 42% 29.97 in 10.0 mi East 4.6 mph - N/A   Clear
10:35 PM 72.9 °F - 49.1 °F 43% 29.97 in 10.0 mi East 4.6 mph - N/A   Clear
10:55 PM 72.7 °F - 49.1 °F 43% 29.97 in 10.0 mi East 3.5 mph - N/A   Clear
11:15 PM 71.6 °F - 49.8 °F 46% 29.97 in 10.0 mi ESE 4.6 mph - N/A   Clear
11:35 PM 70.5 °F - 50.5 °F 49% 29.97 in 10.0 mi ESE 4.6 mph - N/A   Clear
11:55 PM 71.1 °F - 50.9 °F 49% 29.97 in 10.0 mi ESE 4.6 mph - N/A   Clear